Location: Bushrod
(6.3500°N, 10.7833°W)
Time: 05:58:58
(UTC+00:00)

Ariane H10 - Pass Details

Date: 17 September 2019
Orbit: 516 x 35448 km, 8.1° (Epoch: 22 October)

Event Time Altitude Azimuth Distance (km) Brightness Sun altitude
Rises 19:36:30 0° 259° (W) 17,026 11.0 -14.4°
Reaches altitude 10° 20:02:20 10° 255° (WSW) 9,204 9.0 -20.8°
Maximum altitude 20:21:56 51° 183° (S) 1,543 3.9 -25.6°
Enters shadow 20:23:13 44° 145° (SE) 1,436 3.5 -25.9°
